{"data":{"norad_id":65154,"epoch":"2026-09-21T12:41:30.221664Z","epoch_age_seconds":76407,"freshness":"FRESH","line1":"1 65154U 25171Y   26264.52882201 -.00000367  00000+0 -19160-4 0  9993","line2":"2 65154  51.8997  29.5766 0000537 104.1240 255.9782 14.79930225 61641","mean_motion":14.79930225,"eccentricity":5.37e-5,"inclination_deg":51.8997,"raan_deg":29.5766,"arg_perigee_deg":104.124,"mean_anomaly_deg":255.9782,"bstar":-1.916e-5,"rev_number":6164,"period_min":97.301884620946,"perigee_km":629.16807668544,"apogee_km":629.92070166664,"semimajor_km":7007.681389176,"source":"CELESTRAK","updated_at":"2026-09-22T09:00:30.158158Z"}}